Meteo Giornale » Osservazioni meteo Tunisia » Tunis-Carthage

ore: 19:00 - Osservazioni Meteo Tunis-Carthage
Lat. 36° 50' N Lon. 10° 14' E Alt. 3 metri s.l.m.

poco_nuvoloso

30 °C

Poco Nuvoloso

Temp. 24 Ore

25 °C

37 °C

Nord-Est

13 Km/h

Dew point 23 °C

Umidità 66 %

Visibilità  10 Km

Il sole sorge alle ore 05:50

Il sole tramonta alle ore 18:48

Data e Ora Cielo e Fenomeni T °C DP °C Um. % Pres. hPa Vis. km Vento km/h
Oggi h: 19:00 poco_nuvoloso Poco Nuvoloso 30 23 66 1017 10 NE 13
Oggi h: 18:30 poco_nuvoloso Poco Nuvoloso 31 21 55 1017 10 NE 13
Oggi h: 18:00 poco_nuvoloso Poco Nuvoloso 31 21 55 1017 10 NE 14.8
Oggi h: 17:30 poco_nuvoloso Poco Nuvoloso 32 22 55 1017 10 N/NE 14.8
Oggi h: 17:00 poco_nuvoloso Poco Nuvoloso 33 21 49 1017 10 NE 13
Oggi h: 16:30 poco_nuvoloso Poco Nuvoloso 34 21 46 1017 10 N/NE 18.5
Oggi h: 16:00 poco_nuvoloso Poco Nuvoloso 34 20 43 1017 10 N/NE 18.5
Oggi h: 15:30 poco_nuvoloso Poco Nuvoloso 35 19 39 1017 10 N/NE 16.7
Oggi h: 15:00 poco_nuvoloso Poco Nuvoloso 37 17 30 1017 10 N 16.7
Oggi h: 14:30 poco_nuvoloso Poco Nuvoloso 37 16 28 1017 10 N 16.7
Oggi h: 14:00 poco_nuvoloso Poco Nuvoloso 37 14 25 1017 10 N 14.8
Oggi h: 13:30 poco_nuvoloso Poco Nuvoloso 37 14 25 1018 10 N 14.8
Oggi h: 13:00 poco_nuvoloso Poco Nuvoloso 36 15 28 1018 10 N 13
Oggi h: 12:30 nuvoloso Nuvoloso 36 16 30 1018 10 N/NE 11.1
Oggi h: 12:00 nuvoloso Nuvoloso 35 17 34 1018 10 N 5.5
Oggi h: 11:30 nuvoloso Nuvoloso 35 18 36 1018 10 N 7.4
Oggi h: 11:00 nuvoloso Nuvoloso 34 19 41 1019 10 N 5.5
Oggi h: 10:30 nuvoloso Nuvoloso 34 20 43 1019 10 N 5.5
Oggi h: 10:00 nuvoloso Nuvoloso 32 21 52 1018 10 S 7.4
Oggi h: 09:30 nuvoloso Nuvoloso 31 23 62 1018 10 S/SE 7.4
Oggi h: 09:00 nuvoloso Nuvoloso 31 23 62 1018 10 S 11.1
Oggi h: 08:30 nuvoloso Nuvoloso 30 23 66 1018 10 S/SO 9.3
Oggi h: 08:00 poco_nuvoloso Poco Nuvoloso 30 24 70 1018 10 N 3.7
Oggi h: 07:30 poco_nuvoloso Poco Nuvoloso 28 25 83 1018 10 N 5.5
Oggi h: 07:00 poco_nuvoloso Poco Nuvoloso 27 25 88 1017 10 N 5.5
Oggi h: 06:30 poco_nuvoloso Poco Nuvoloso 25 24 94 1016 10 N 1.8
Oggi h: 06:00 poco_nuvoloso Poco Nuvoloso 26 24 88 1016 10 N 0
Oggi h: 05:30 poco_nuvoloso Poco Nuvoloso 26 24 88 1016 10 N 0
Oggi h: 05:00 poco_nuvoloso Poco Nuvoloso 26 24 88 1016 10 N 0
Oggi h: 04:30 poco_nuvoloso Poco Nuvoloso 27 24 83 1017 10 N 5.5
Oggi h: 04:00 poco_nuvoloso Poco Nuvoloso 27 24 83 1017 10 N 5.5
Oggi h: 03:30 poco_nuvoloso Poco Nuvoloso 27 23 78 1017 10 NO 11.1
Oggi h: 03:00 poco_nuvoloso Poco Nuvoloso 27 24 83 1017 10 O/NO 9.3
Oggi h: 02:30 poco_nuvoloso Poco Nuvoloso 27 24 83 1017 10 O/NO 11.1
Oggi h: 02:00 poco_nuvoloso Poco Nuvoloso 28 24 78 1017 10 NO 13
Oggi h: 01:30 poco_nuvoloso Poco Nuvoloso 28 24 78 1017 10 N/NO 11.1
Oggi h: 01:00 poco_nuvoloso Poco Nuvoloso 28 24 78 1016 10 N 11.1
Oggi h: 00:30 poco_nuvoloso Poco Nuvoloso 28 24 78 1017 10 N 11.1
Oggi h: 00:00 poco_nuvoloso Poco Nuvoloso 28 22 69 1017 10 N 9.3
Ieri h: 23:30 poco_nuvoloso Poco Nuvoloso 28 22 69 1017 10 N 7.4
Ieri h: 23:00 poco_nuvoloso Poco Nuvoloso 28 22 69 1017 10 N 7.4
Ieri h: 22:30 poco_nuvoloso Poco Nuvoloso 28 20 61 1017 10 N 7.4
Ieri h: 22:00 poco_nuvoloso Poco Nuvoloso 29 18 51 1018 10 N 5.5
Ieri h: 21:30 poco_nuvoloso Poco Nuvoloso 30 16 42 1018 10 N/NO 7.4
Ieri h: 21:00 poco_nuvoloso Poco Nuvoloso 30 15 40 1018 10 NO 9.3
Ieri h: 20:30 poco_nuvoloso Poco Nuvoloso 30 16 42 1019 10 N 0
Ieri h: 20:00 poco_nuvoloso Poco Nuvoloso 30 17 45 1018 10 N/NO 16.7